Date,TemperatureHighF,TemperatureAvgF,TemperatureLowF,DewpointHighF,DewpointAvgF,DewpointLowF,HumidityHigh,HumidityAvg,HumidityLow,PressureMaxIn,PressureMinIn,WindSpeedMaxMPH,WindSpeedAvgMPH,GustSpeedMaxMPH,PrecipitationSumIn
2013-1-1,41.3,35.0,30.8,32.0,27.6,22.0,91,75,57,29.52,29.16,26,8,0,0.00
2013-1-2,37.1,35.4,31.8,26.0,24.0,22.0,80,63,57,29.51,29.20,28,10,0,0.00
2013-1-3,37.5,34.8,31.1,26.0,24.2,22.0,77,66,55,29.55,29.45,15,6,0,0.00
2013-1-4,36.2,33.2,28.7,28.0,24.6,22.0,92,71,60,29.79,29.54,15,4,0,0.00
2013-1-5,35.7,32.6,30.1,28.0,26.0,23.0,83,77,65,29.71,29.27,7,2,0,0.00
2013-1-6,36.2,33.2,28.9,28.0,26.2,23.0,89,76,60,29.34,28.98,27,4,0,0.00
2013-1-7,36.2,32.0,28.9,24.0,22.5,19.0,80,68,51,29.34,29.01,10,2,0,0.00
2013-1-8,32.3,26.4,22.1,26.0,21.3,17.0,92,81,65,29.84,29.34,10,2,0,0.00
2013-1-10,26.3,18.4,19.4,23.0,-0.5,-99.9,95,76,82,30.12,29.96,6,-170,0,0.00
2013-1-11,35.4,32.3,26.1,27.0,24.2,20.0,83,72,63,30.10,29.91,17,6,0,0.00
2013-1-12,38.7,35.9,30.9,34.0,31.1,26.0,91,83,67,30.08,29.80,35,15,0,1.53
2013-1-13,42.0,39.0,36.2,35.0,33.7,32.0,89,81,71,29.86,29.59,37,16,0,0.90
2013-1-14,41.5,37.9,29.6,36.0,30.6,16.0,88,75,54,29.88,29.43,35,16,0,0.64
2013-1-15,29.6,26.5,24.1,14.0,8.1,3.0,61,46,34,30.20,29.89,21,5,0,0.00
2013-1-16,31.0,22.4,16.8,23.0,18.2,11.0,100,84,54,30.16,29.64,7,1,0,0.00
2013-1-17,18.1,14.7,10.6,16.0,12.1,7.0,93,89,79,29.93,29.56,9,3,0,0.00
2013-1-18,15.9,11.9,9.6,13.0,7.9,5.0,89,84,76,30.19,29.93,8,1,0,0.00
2013-1-19,32.2,24.6,10.9,25.0,19.4,8.0,89,80,74,30.20,29.92,10,3,0,0.00
2013-1-20,36.6,32.0,17.5,32.0,27.4,14.0,95,83,71,29.94,29.81,27,4,0,0.01
2013-1-21,43.4,34.8,14.6,32.0,26.8,12.0,90,73,62,29.87,29.67,7,2,0,0.14
2013-1-22,39.8,37.3,34.5,32.0,30.5,27.0,81,77,72,29.68,29.39,7,2,0,0.00
2013-1-23,39.7,37.3,35.4,32.0,30.6,28.0,84,76,68,29.39,29.27,7,3,0,0.00
2013-1-24,38.3,35.5,33.4,29.0,25.8,23.0,80,68,62,29.45,29.33,21,8,0,0.00
2013-1-25,34.0,14.7,0.3,27.0,8.9,-6.0,93,78,68,29.57,29.30,18,8,0,0.00
2013-1-26,6.5,-1.1,-6.0,-1.0,-9.1,-14.0,82,69,60,29.88,29.58,10,3,0,0.00
2013-1-27,-0.8,-5.7,-10.6,-7.0,-13.1,-99.9,86,74,62,30.14,29.88,14,4,0,0.00
2013-1-28,7.2,-1.4,-9.7,4.0,-8.8,-17.0,89,71,47,30.18,29.86,12,2,0,0.00
2013-1-29,25.9,14.2,0.5,22.0,11.4,-3.0,94,88,77,29.86,29.75,13,4,0,0.00
2013-1-30,40.5,32.9,26.1,33.0,26.7,22.0,94,78,63,29.82,29.61,30,8,0,0.06
2013-1-31,37.6,31.6,27.6,32.0,30.0,27.0,97,94,78,29.90,29.66,15,2,0,0.05
2013-2-1,38.4,33.7,27.0,30.0,27.8,23.0,95,79,67,29.94,29.64,8,1,0,0.01
2013-2-2,40.1,35.2,31.4,31.0,29.4,27.0,90,80,67,29.65,29.34,10,3,0,0.00
2013-2-3,38.8,34.6,32.7,31.0,29.3,27.0,88,81,66,29.44,29.22,19,4,0,0.00
2013-2-4,37.0,35.7,34.1,30.0,25.8,24.0,83,68,60,29.60,29.45,21,10,0,0.01
2013-2-5,35.7,31.4,22.3,25.0,21.5,17.0,90,67,60,29.60,29.45,8,3,0,0.00
2013-2-6,28.1,24.8,22.9,26.0,22.3,19.0,95,90,70,29.60,29.42,9,1,0,0.00
2013-2-7,32.9,26.2,20.9,27.0,22.6,19.0,95,87,70,29.58,29.23,28,6,0,0.00
2013-2-8,35.2,30.6,27.0,28.0,26.2,23.0,96,84,65,29.73,29.34,22,6,0,0.02
2013-2-9,39.5,34.2,26.3,28.0,26.0,23.0,89,72,59,29.68,28.96,18,6,0,0.09
2013-2-10,37.9,32.8,26.9,31.0,28.1,25.0,96,83,70,29.45,28.95,23,8,0,0.00
2013-2-11,28.0,22.1,18.2,26.0,18.9,14.0,96,87,75,29.73,29.46,15,5,0,0.01
2013-2-12,31.0,28.5,24.3,24.0,21.4,20.0,86,75,66,29.73,29.69,18,6,0,0.00
2013-2-13,34.9,30.4,26.2,26.0,22.9,19.0,94,74,55,29.79,29.61,13,4,0,0.00
2013-2-14,35.3,29.6,24.5,30.0,24.6,22.0,95,82,62,29.62,29.18,25,5,0,0.00
2013-2-15,28.6,24.7,19.3,27.0,23.3,17.0,96,94,89,29.89,29.47,10,4,0,0.00
2013-2-16,25.1,18.1,12.8,21.0,13.3,7.0,92,81,68,29.98,29.74,18,6,0,0.00
2013-2-17,21.9,17.5,12.6,21.0,15.8,11.0,100,93,91,29.74,29.55,18,8,0,0.00
2013-2-18,18.2,10.5,8.2,16.0,8.0,5.0,92,89,65,29.87,29.76,15,4,0,0.00
2013-2-19,24.3,13.6,7.5,23.0,10.9,5.0,95,89,83,29.83,29.27,13,4,0,0.00
2013-2-20,30.8,24.6,13.0,28.0,22.1,11.0,96,90,80,29.27,29.04,16,5,0,0.01
2013-2-21,26.7,22.7,19.8,23.0,19.8,17.0,95,88,75,29.22,29.07,6,1,0,0.00
2013-2-22,25.8,19.9,13.4,20.0,15.9,7.0,95,85,67,29.41,29.17,19,6,0,0.00
2013-2-23,28.6,21.3,17.2,25.0,16.8,10.0,95,83,70,29.37,29.14,15,5,0,0.00
2013-2-24,33.9,29.7,23.0,25.0,22.6,20.0,95,75,66,29.60,29.32,13,5,0,0.00
2013-2-25,35.5,30.8,25.9,25.0,21.8,18.0,87,70,57,29.63,29.53,8,2,0,0.00
2013-2-26,35.8,31.4,24.7,25.0,22.0,17.0,87,69,56,29.53,29.26,11,2,0,0.01
2013-2-27,35.9,30.7,21.4,28.0,22.2,13.0,85,71,54,29.27,29.16,17,2,0,0.00
2013-2-28,34.0,29.6,22.1,28.0,24.1,17.0,94,80,67,29.35,29.25,13,4,0,0.00
2013-3-1,30.6,27.0,22.0,27.0,23.1,17.0,96,85,70,29.91,29.35,9,3,0,0.00
2013-3-2,32.2,28.2,24.0,27.0,23.8,21.0,95,84,68,30.06,29.91,7,2,0,0.00
2013-3-3,39.6,33.6,30.8,25.0,21.3,20.0,67,61,53,30.40,30.05,11,3,0,0.00
2013-3-4,38.8,35.6,31.7,25.0,23.9,21.0,70,63,57,30.43,30.26,13,4,0,0.00
2013-3-5,34.8,32.0,28.4,28.0,24.2,21.0,78,73,66,30.25,29.94,7,3,0,0.00
2013-3-6,38.2,31.9,25.2,26.0,23.4,18.0,80,71,61,29.95,29.80,13,3,0,0.00
2013-3-7,37.9,34.5,30.0,26.0,23.6,20.0,74,65,54,29.80,29.40,42,8,0,0.01
2013-3-8,42.1,37.2,34.7,27.0,23.9,19.0,67,59,51,29.68,29.39,29,10,0,0.00
2013-3-9,38.9,35.0,28.3,28.0,22.7,19.0,96,62,49,30.04,29.68,29,6,0,0.00
2013-3-10,32.0,27.7,25.2,27.0,25.5,24.0,96,92,74,30.17,30.03,9,4,0,0.00
2013-3-11,31.8,24.7,20.0,26.0,21.8,12.0,96,89,60,30.27,30.17,16,4,0,0.11
2013-3-12,31.6,21.5,11.6,15.0,11.3,6.0,84,66,41,30.19,29.95,8,3,0,0.04
2013-3-13,28.0,18.6,7.2,13.0,6.8,-1.0,79,61,38,29.95,29.76,11,2,0,0.00
2013-3-14,22.6,16.1,10.3,15.0,6.4,-1.0,87,66,58,29.86,29.72,11,4,0,0.00
2013-3-15,31.9,23.2,14.1,18.0,10.8,4.0,80,60,37,29.84,29.70,6,2,0,0.00
2013-3-16,26.6,22.1,18.5,12.0,7.9,2.0,64,55,44,30.07,29.80,6,2,0,0.00
2013-3-17,27.6,20.0,11.5,8.0,3.0,0.0,64,48,35,30.12,30.02,7,2,0,0.00
2013-3-18,22.4,18.2,11.0,12.0,6.1,0.0,73,60,47,30.02,29.86,7,2,0,0.00
2013-3-19,24.2,16.4,9.0,12.0,1.8,-4.0,85,56,31,29.88,29.84,14,5,0,0.00
2013-3-20,17.9,11.9,6.8,1.0,-2.4,-5.0,63,53,40,29.98,29.84,11,5,0,0.00
2013-3-21,24.6,17.8,12.9,12.0,4.3,-2.0,72,56,46,30.18,29.97,19,3,0,0.00
2013-3-22,31.2,26.3,21.7,24.0,19.0,10.0,86,74,52,30.10,29.78,33,15,0,0.00
2013-3-23,31.1,25.8,20.0,26.0,23.4,18.0,95,90,68,29.82,29.73,18,7,0,0.00
2013-3-24,23.3,20.2,14.2,21.0,18.4,12.0,95,93,89,29.81,29.55,10,3,0,0.00
2013-3-25,19.3,14.2,6.9,18.0,8.2,-99.9,94,88,82,29.65,29.38,16,-38,0,0.01
2013-3-26,18.3,7.1,1.3,10.0,-0.0,-99.9,89,78,56,30.16,29.65,12,-18,0,0.00
2013-3-27,17.5,10.6,0.9,10.0,4.9,-3.0,82,77,66,30.24,30.17,9,3,0,0.00
2013-3-28,30.1,20.3,10.2,21.0,14.4,6.0,90,78,64,30.20,29.93,25,5,0,0.00
2013-3-29,34.7,27.8,20.4,29.0,23.2,18.0,95,83,71,29.95,29.85,13,4,0,0.00
2013-3-30,39.3,33.9,29.8,31.0,28.3,25.0,91,80,67,30.20,29.95,9,2,0,0.09
2013-3-31,37.3,33.3,30.7,31.0,28.2,23.0,94,82,71,30.21,30.08,10,3,0,0.00
2013-4-1,34.2,30.7,27.5,30.0,25.2,22.0,93,80,63,30.07,29.93,7,2,0,0.05
2013-4-2,38.1,30.3,21.9,24.0,20.6,15.0,75,67,50,30.13,29.98,17,5,0,0.00
2013-4-3,40.3,34.5,30.2,25.0,22.0,20.0,69,61,50,30.21,30.14,12,3,0,0.00
2013-4-4,36.0,31.0,27.3,20.0,14.8,3.0,71,52,29,30.15,29.73,11,4,0,0.00
2013-4-5,35.2,25.8,12.8,19.0,10.5,3.0,77,54,34,29.71,29.46,7,2,0,0.00
2013-4-6,27.1,22.3,20.5,22.0,20.0,18.0,94,90,77,29.46,29.38,5,1,0,0.29
2013-4-7,24.3,19.4,15.1,19.0,10.3,1.0,93,70,40,29.75,29.49,14,5,0,0.00
2013-4-8,15.8,11.9,6.8,13.0,8.0,1.0,92,84,74,29.75,29.28,11,3,0,0.00
2013-4-9,18.2,13.0,9.2,13.0,9.9,7.0,91,87,78,29.43,29.07,12,4,0,0.00
2013-4-10,20.1,12.0,8.1,11.0,7.5,3.0,91,82,60,29.93,29.44,15,4,0,0.00
2013-4-11,22.9,13.0,4.3,10.0,3.7,-1.0,89,68,45,30.08,29.94,12,5,0,0.00
2013-4-12,24.3,15.1,5.4,8.0,1.6,-2.0,78,57,37,30.11,30.04,16,6,0,0.00
2013-4-13,27.4,18.5,4.4,12.0,3.8,-3.0,74,54,39,30.40,30.10,20,4,0,0.00
2013-4-14,31.4,11.2,-90.0,15.0,-12.3,-99.9,76,44,36,30.51,30.40,11,3,0,0.00
2013-4-15,34.4,27.2,20.4,14.0,9.1,5.0,59,47,35,30.48,30.26,14,4,0,0.00
2013-4-16,30.0,23.5,14.1,18.0,9.3,-99.9,69,57,44,30.26,30.08,14,-6,0,0.00
2013-4-17,32.5,19.7,-90.0,18.0,7.3,-99.9,72,58,46,30.16,30.06,13,3,0,0.00
2013-4-18,33.6,25.8,14.2,18.0,14.4,9.0,82,63,48,30.18,30.10,9,3,0,0.00
2013-4-19,39.1,30.0,22.4,17.0,14.3,9.0,73,53,38,30.30,30.12,9,4,0,0.00
2013-4-20,41.1,34.2,24.4,22.0,15.7,8.0,68,47,38,30.39,30.30,16,5,0,0.00
2013-4-21,41.4,33.9,29.2,28.0,20.3,15.0,84,59,42,30.38,30.31,12,4,0,0.00
2013-4-22,45.9,38.0,31.0,27.0,23.7,20.0,74,57,45,30.48,30.36,11,4,0,0.00
2013-4-23,38.9,34.7,29.5,35.0,29.9,21.0,97,84,54,30.46,30.31,11,3,0,0.05
2013-4-24,36.2,34.4,31.5,34.0,32.4,26.0,97,92,72,30.32,29.80,13,4,0,0.01
2013-4-25,36.8,31.4,25.6,29.0,14.1,2.0,97,55,26,29.80,29.63,36,14,0,0.00
2013-4-26,33.7,27.5,20.0,18.0,10.0,2.0,60,48,36,29.68,29.47,12,4,0,0.00
2013-4-27,36.4,29.5,23.0,17.0,12.1,8.0,67,50,31,29.86,29.49,27,9,0,0.00
2013-4-28,36.0,30.0,20.4,16.0,9.6,3.0,58,43,30,30.13,29.86,15,8,0,0.00
2013-4-29,38.7,32.5,27.0,24.0,15.5,9.0,61,50,43,30.15,30.07,11,4,0,0.00
2013-4-30,35.6,32.5,30.8,30.0,23.8,20.0,92,71,60,30.07,29.79,18,8,0,0.00
2013-5-1,39.5,34.7,30.4,27.0,22.9,21.0,84,63,52,29.78,29.52,13,4,0,0.00
2013-5-2,39.4,35.6,31.7,35.0,30.6,24.0,97,83,64,29.82,29.61,19,4,0,0.06
2013-5-3,41.1,37.8,32.2,34.0,31.7,30.0,97,79,67,29.88,29.75,22,8,0,0.01
2013-5-4,33.1,31.9,30.3,32.0,31.0,30.0,97,96,91,29.93,29.70,10,4,0,0.34
2013-5-5,42.0,35.3,29.8,31.0,24.5,18.0,93,67,47,30.11,29.94,7,2,0,0.05
2013-5-6,42.2,36.1,31.1,28.0,23.7,18.0,70,61,48,30.23,30.11,12,3,0,0.00
2013-5-7,41.1,36.6,32.3,31.0,27.1,24.0,80,69,60,30.26,30.22,7,2,0,0.00
2013-5-8,47.8,39.9,33.2,32.0,27.6,24.0,78,62,45,30.24,30.21,11,4,0,0.00
2013-5-9,47.8,43.0,39.5,33.0,28.0,21.0,64,56,45,30.27,30.21,10,3,0,0.00
2013-5-10,55.0,47.9,42.6,32.0,29.2,24.0,60,49,37,30.21,29.92,13,4,0,0.00
2013-5-11,50.9,45.9,41.8,39.0,35.1,32.0,76,66,55,29.91,29.54,12,4,0,0.00
2013-5-12,46.5,43.4,39.1,43.0,39.7,36.0,96,87,74,29.55,29.44,7,3,0,0.18
2013-5-13,46.8,40.7,35.8,37.0,30.1,16.0,94,69,35,29.44,29.38,14,6,0,0.16
2013-5-14,40.4,35.2,29.6,28.0,20.1,15.0,75,55,44,29.61,29.43,10,4,0,0.00
2013-5-15,41.8,37.4,33.5,29.0,24.4,20.0,71,60,48,29.73,29.61,21,7,0,0.00
2013-5-16,37.6,33.8,31.1,35.0,30.9,24.0,98,90,58,29.70,29.43,13,5,0,0.05
2013-5-17,33.9,31.8,26.8,33.0,31.2,26.0,98,98,97,29.51,29.36,10,2,0,0.28
2013-5-18,31.3,26.3,21.4,29.0,23.9,20.0,97,91,72,30.16,29.51,10,2,0,0.19
2013-5-19,38.5,31.9,23.7,20.0,17.5,14.0,71,56,41,30.60,30.17,12,5,0,0.07
2013-5-20,46.2,38.0,30.9,28.0,20.4,14.0,62,50,36,30.63,30.53,10,4,0,0.00
2013-5-21,45.3,39.7,31.6,35.0,28.0,18.0,71,63,49,30.54,30.25,12,4,0,0.00
2013-5-22,50.0,42.6,37.9,39.0,32.5,28.0,95,68,55,30.25,30.10,12,3,0,0.01
2013-5-23,49.4,43.7,39.4,43.0,40.0,38.0,97,87,72,30.12,30.07,7,2,0,0.02
2013-5-24,60.0,51.1,43.7,45.0,38.6,29.0,78,64,36,30.08,29.95,12,4,0,0.00
2013-5-25,60.2,53.4,47.7,37.0,30.5,21.0,55,42,28,29.96,29.85,16,7,0,0.00
2013-5-26,55.8,50.0,43.9,40.0,33.4,22.0,65,54,31,29.89,29.83,12,3,0,0.00
2013-5-27,67.6,56.8,47.7,43.0,40.1,37.0,71,55,38,29.88,29.73,12,3,0,0.00
2013-5-28,71.3,59.5,48.6,46.0,41.1,37.0,71,52,37,29.74,29.62,13,4,0,0.00
2013-5-29,72.0,65.1,59.2,43.0,39.1,33.0,48,39,27,29.70,29.62,11,4,0,0.00
2013-5-30,63.8,59.1,53.6,45.0,40.2,33.0,66,50,35,29.96,29.70,11,4,0,0.00
2013-5-31,56.2,50.9,45.9,47.0,43.6,40.0,89,76,63,30.12,29.97,11,3,0,0.00
2013-6-1,48.7,44.6,40.7,46.0,42.8,40.0,98,93,86,30.18,30.11,9,3,0,0.02
2013-6-2,51.0,44.2,40.8,46.0,41.0,35.0,98,89,62,30.21,30.07,18,4,0,0.56
2013-6-3,49.7,46.2,43.6,44.0,40.2,34.0,94,80,66,30.06,29.73,13,4,0,0.00
2013-6-4,51.3,46.0,41.3,43.0,37.2,33.0,93,72,52,29.80,29.66,19,6,0,0.00
2013-6-5,54.9,46.7,40.8,39.0,35.0,33.0,75,64,48,29.95,29.80,18,7,0,0.00
2013-6-6,60.5,51.3,42.8,41.0,35.0,31.0,66,55,39,29.93,29.68,13,5,0,0.00
2013-6-7,66.1,55.2,45.4,43.0,37.5,33.0,69,53,32,29.89,29.67,10,4,0,0.00
2013-6-8,65.7,57.3,46.8,46.0,40.5,35.0,63,54,45,30.09,29.90,11,4,0,0.00
2013-6-9,68.3,61.3,54.4,47.0,42.0,38.0,63,50,36,30.17,30.09,13,5,0,0.00
2013-6-10,66.7,60.8,54.5,46.0,41.2,38.0,59,49,40,30.19,30.09,15,6,0,0.00
2013-6-11,66.8,59.1,51.6,49.0,42.7,38.0,74,56,42,30.11,29.96,14,5,0,0.00
2013-6-12,69.5,61.8,54.6,45.0,39.5,32.0,62,46,25,29.97,29.91,12,4,0,0.00
2013-6-13,63.7,58.6,52.1,52.0,42.7,34.0,83,57,37,30.13,29.93,10,5,0,0.00
2013-6-14,67.1,58.2,49.6,50.0,43.7,39.0,74,60,39,30.23,30.14,12,4,0,0.00
2013-6-15,67.9,60.5,52.8,51.0,46.0,39.0,75,60,42,30.27,30.20,9,4,0,0.00
2013-6-16,77.4,66.8,59.4,57.0,49.6,42.0,71,55,37,30.21,30.08,9,3,0,0.00
2013-6-17,79.3,70.3,62.5,56.0,49.2,40.0,55,48,34,30.09,29.83,9,3,0,0.00
2013-6-18,75.1,69.3,56.9,55.0,46.1,38.0,61,45,27,29.85,29.74,30,8,0,0.00
2013-6-19,67.0,60.3,51.7,47.0,42.9,40.0,76,54,41,29.94,29.85,14,5,0,0.00
2013-6-20,64.2,56.5,50.1,53.0,47.5,39.0,91,72,47,29.98,29.93,10,3,0,0.00
2013-6-21,49.3,46.0,43.6,48.0,44.1,41.0,98,93,78,30.07,29.98,8,2,0,0.00
2013-6-22,62.0,52.5,43.5,47.0,41.8,33.0,92,70,36,30.05,29.77,11,3,0,0.00
2013-6-23,61.7,57.0,51.2,47.0,43.1,33.0,72,60,45,29.77,29.61,13,3,0,0.00
2013-6-24,67.1,59.7,51.3,52.0,47.0,39.0,82,64,52,29.64,29.59,10,4,0,0.00
2013-6-25,69.8,62.6,56.8,54.0,49.8,45.0,73,63,53,29.60,29.56,9,2,0,0.00
2013-6-26,74.0,66.1,60.9,56.0,51.3,46.0,74,60,41,29.83,29.58,21,6,0,0.00
2013-6-27,65.7,60.1,55.3,57.0,53.2,49.0,90,78,60,30.04,29.83,9,3,0,0.00
2013-6-28,58.3,52.8,51.0,54.0,51.6,51.0,99,96,84,30.14,30.04,6,1,0,0.03
2013-6-29,60.0,54.5,50.3,54.0,51.4,50.0,98,89,78,30.12,29.98,6,1,0,0.00
2013-6-30,59.0,53.1,49.7,53.0,49.1,44.0,98,87,64,30.03,29.79,23,6,0,0.01
2013-7-1,55.4,50.3,46.9,48.0,44.8,39.0,97,82,66,29.80,29.57,10,2,0,0.07
2013-7-2,55.0,50.6,46.6,47.0,42.5,39.0,96,75,57,29.86,29.57,20,6,0,0.00
2013-7-3,55.9,50.7,46.1,45.0,42.1,40.0,92,73,60,30.00,29.87,22,8,0,0.00
2013-7-4,52.0,48.7,45.6,47.0,42.7,40.0,94,80,68,30.04,29.96,20,8,0,0.08
2013-7-5,54.0,50.4,46.0,48.0,43.8,41.0,92,78,68,30.05,29.98,16,5,0,0.06
2013-7-6,56.7,51.9,48.7,48.0,43.9,41.0,89,74,63,30.00,29.76,18,9,0,0.01
2013-7-7,59.7,52.1,46.4,50.0,46.8,42.0,100,83,61,29.75,29.57,14,4,0,0.01
2013-7-8,55.5,48.2,43.7,49.0,45.4,43.0,98,90,73,29.82,29.64,7,2,0,0.10
2013-7-9,60.0,52.8,46.8,50.0,46.2,43.0,96,79,61,30.02,29.82,10,3,0,0.00
2013-7-10,65.7,57.6,51.0,52.0,48.1,46.0,85,71,57,30.03,29.91,14,5,0,0.01
2013-7-11,69.5,61.6,54.8,55.0,50.2,43.0,78,67,57,29.93,29.88,9,2,0,0.00
2013-7-12,70.5,63.6,57.2,58.0,50.7,48.0,71,64,52,29.93,29.88,9,3,0,0.00
2013-7-13,68.3,62.9,59.0,54.0,50.4,46.0,76,64,58,30.12,29.93,9,3,0,0.00
2013-7-14,60.3,55.1,51.1,54.0,51.4,49.0,97,87,77,30.28,30.13,8,2,0,0.00
2013-7-15,55.6,52.1,49.4,53.0,50.0,48.0,96,92,89,30.33,30.23,7,2,0,0.00
2013-7-16,61.1,55.6,50.5,55.0,51.9,49.0,96,88,76,30.24,30.12,9,2,0,0.00
2013-7-17,64.5,59.4,54.8,59.0,55.1,51.0,90,85,76,30.13,30.05,10,4,0,0.00
2013-7-18,68.7,62.2,56.2,60.0,56.5,53.0,91,82,71,30.13,30.07,14,5,0,0.00
2013-7-19,66.6,61.5,57.1,56.0,53.2,50.0,86,74,61,30.14,30.09,11,6,0,0.00
2013-7-20,64.2,57.9,51.8,53.0,49.1,46.0,97,74,59,30.11,30.04,13,4,0,0.28
2013-7-21,69.0,60.2,53.0,53.0,45.4,42.0,76,59,40,30.05,29.92,16,6,0,0.00
2013-7-22,72.1,62.1,51.9,54.0,47.0,43.0,74,59,44,30.07,29.96,10,3,0,0.00
2013-7-23,72.6,66.1,60.7,55.0,47.8,42.0,59,52,46,30.09,30.00,11,4,0,0.00
2013-7-24,74.3,66.6,60.9,57.0,51.4,46.0,66,59,49,30.01,29.91,9,3,0,0.00
2013-7-25,70.9,64.7,55.8,61.0,54.4,48.0,97,70,60,30.02,29.92,12,3,0,0.04
2013-7-26,64.5,58.6,55.4,60.0,56.7,55.0,99,93,81,30.27,30.03,7,3,0,0.01
2013-7-27,64.0,58.2,55.7,59.0,55.6,54.0,96,91,82,30.32,30.27,9,2,0,0.00
2013-7-28,69.5,61.5,56.3,62.0,57.2,54.0,97,86,70,30.28,30.14,7,2,0,0.00
2013-7-29,71.1,63.2,57.8,61.0,57.7,54.0,94,82,67,30.16,30.11,7,2,0,0.00
2013-7-30,69.6,62.6,55.3,60.0,56.7,53.0,93,81,68,30.18,30.14,8,3,0,0.00
2013-7-31,66.8,60.4,54.8,59.0,55.9,53.0,96,85,74,30.18,30.09,7,2,0,0.00
2013-8-1,63.8,58.1,53.8,58.0,53.1,45.0,96,84,55,30.11,29.94,15,3,0,0.00
2013-8-2,66.4,60.1,53.0,54.0,49.9,45.0,92,70,57,29.96,29.77,17,5,0,0.03
2013-8-3,66.5,59.4,54.4,51.0,47.0,45.0,82,64,51,29.85,29.69,24,7,0,0.00
2013-8-4,59.4,56.5,54.3,51.0,47.2,46.0,84,71,63,29.93,29.85,19,8,0,0.02
2013-8-5,60.6,56.6,50.9,50.0,47.3,45.0,93,72,58,29.95,29.92,13,6,0,0.02
2013-8-6,60.8,57.0,53.2,50.0,47.3,45.0,87,71,57,29.94,29.88,9,2,0,0.00
2013-8-7,58.0,55.0,53.3,53.0,49.4,46.0,94,82,66,29.88,29.73,11,2,0,0.01
2013-8-8,63.1,54.3,49.2,55.0,49.4,42.0,97,84,57,29.79,29.70,11,4,0,0.01
2013-8-9,53.6,49.3,46.2,50.0,46.9,42.0,100,91,71,29.79,29.69,16,5,0,0.42
2013-8-10,55.6,52.0,48.9,54.0,49.7,46.0,98,92,77,29.98,29.75,7,2,0,0.23
2013-8-11,53.4,52.2,50.9,53.0,51.1,49.0,99,96,87,30.01,29.96,10,3,0,0.62
2013-8-12,62.9,56.3,52.1,59.0,55.1,52.0,99,96,80,30.02,29.99,7,2,0,0.15
2013-8-13,62.8,56.8,51.4,57.0,54.2,51.0,98,91,73,30.00,29.94,11,2,0,0.00
2013-8-14,52.4,50.4,48.1,51.0,49.2,48.0,99,96,87,30.00,29.88,5,1,0,0.00
2013-8-15,61.3,53.8,49.0,53.0,49.2,46.0,94,84,71,29.88,29.74,6,2,0,0.00
2013-8-16,54.2,52.3,50.7,52.0,49.4,47.0,97,90,83,29.75,29.63,6,1,0,0.04
2013-8-17,60.2,54.6,51.0,55.0,50.6,47.0,94,86,74,29.63,29.49,8,2,0,0.11
2013-8-18,56.2,53.9,52.8,55.0,51.2,46.0,98,90,73,29.63,29.45,14,2,0,0.54
2013-8-19,54.0,51.9,49.9,48.0,46.3,44.0,89,81,69,29.73,29.63,23,11,0,0.89
2013-8-20,57.5,52.6,50.2,53.0,48.4,46.0,98,86,77,29.82,29.73,18,6,0,0.27
2013-8-21,52.1,50.1,48.7,48.0,46.3,44.0,92,86,81,29.83,29.73,19,11,0,0.86
2013-8-22,52.4,51.1,49.0,49.0,47.5,47.0,93,87,83,29.73,29.67,17,8,0,0.40
2013-8-23,59.5,53.9,50.1,54.0,50.5,47.0,97,88,80,29.67,29.51,10,4,0,0.09
2013-8-24,61.0,53.0,45.7,50.0,47.5,42.0,98,83,53,29.67,29.53,10,4,0,0.15
2013-8-25,60.0,52.3,44.8,50.0,43.4,38.0,84,72,54,29.70,29.67,8,3,0,0.00
2013-8-26,58.9,54.2,50.1,47.0,42.6,37.0,76,65,52,29.74,29.69,9,4,0,0.00
2013-8-27,58.6,54.4,50.8,52.0,46.7,42.0,94,76,58,29.76,29.71,11,4,0,0.46
2013-8-28,54.9,51.7,47.8,50.0,46.7,43.0,96,83,74,29.71,29.54,11,5,0,0.46
2013-8-29,52.2,50.3,47.2,51.0,48.3,46.0,98,93,82,29.85,29.51,7,3,0,0.31
2013-8-30,55.3,53.0,51.3,52.0,48.5,44.0,95,85,72,29.94,29.85,8,3,0,0.00
2013-8-31,53.8,51.6,48.1,51.0,47.3,44.0,95,85,73,29.92,29.81,11,4,0,0.09
2013-9-1,54.0,50.4,47.6,50.0,47.6,45.0,97,90,79,29.82,29.69,22,4,0,0.09
2013-9-2,57.9,54.3,50.6,49.0,47.6,45.0,94,78,64,29.69,29.41,31,14,0,0.73
2013-9-3,61.7,54.3,48.1,50.0,45.7,41.0,97,73,61,29.52,29.23,24,10,0,0.09
2013-9-4,52.7,48.5,46.3,49.0,45.6,42.0,97,89,69,29.77,29.35,15,5,0,0.44
2013-9-5,55.0,50.1,46.3,43.0,40.9,39.0,81,71,61,30.00,29.78,19,10,0,0.00
2013-9-6,55.0,47.1,43.6,49.0,43.2,38.0,98,87,68,29.99,29.39,11,3,0,0.13
2013-9-7,53.1,49.0,45.0,51.0,47.1,44.0,98,93,87,29.63,29.44,7,4,0,0.10
2013-9-8,54.0,48.7,45.2,51.0,46.2,39.0,99,91,65,29.82,29.42,18,6,0,1.03
2013-9-9,55.1,51.0,48.1,48.0,43.1,41.0,90,74,62,29.81,29.61,13,4,0,0.02
2013-9-10,56.7,52.5,48.5,50.0,46.8,44.0,97,81,71,29.73,29.66,10,3,0,0.02
2013-9-11,55.9,48.7,43.1,50.0,46.1,41.0,98,91,72,29.88,29.56,9,4,0,0.93
2013-9-12,53.5,49.8,46.8,48.0,44.4,40.0,93,82,65,29.96,29.88,10,3,0,0.01
2013-9-13,54.4,49.1,45.8,49.0,44.9,40.0,97,86,70,29.93,29.86,8,2,0,0.06
2013-9-14,58.0,51.6,47.8,50.0,46.0,42.0,96,81,68,29.93,29.83,10,3,0,0.01
2013-9-15,56.8,49.0,41.8,45.0,41.4,37.0,94,76,59,29.86,29.69,9,3,0,0.00
2013-9-16,49.0,45.6,40.8,40.0,37.4,34.0,86,73,62,29.69,29.48,7,3,0,0.00
2013-9-17,47.0,44.5,43.2,44.0,41.7,39.0,97,90,73,29.50,29.43,6,2,0,0.14
2013-9-18,47.0,43.2,41.6,44.0,41.6,39.0,97,94,87,29.59,29.51,8,2,0,0.16
2013-9-19,43.6,39.7,36.1,41.0,33.9,26.0,98,81,52,29.56,29.39,15,5,0,0.25
2013-9-20,43.2,34.4,27.6,27.0,23.7,21.0,82,66,43,29.39,29.02,9,4,0,0.00
2013-9-21,43.7,39.6,35.7,35.0,28.4,22.0,88,65,49,29.01,28.91,16,4,0,0.01
2013-9-22,39.1,33.0,30.9,35.0,29.9,26.0,96,88,74,29.28,28.91,14,6,0,0.07
2013-9-23,37.4,31.6,28.6,32.0,28.8,27.0,96,90,74,29.76,29.29,13,5,0,0.05
2013-9-24,48.6,37.5,31.2,39.0,31.1,23.0,87,78,65,29.96,29.77,14,3,0,0.15
2013-9-25,50.5,43.5,36.2,44.0,39.4,36.0,98,86,69,29.80,29.42,20,8,0,1.04
2013-9-26,49.9,44.3,41.8,43.0,40.3,37.0,97,86,72,29.59,29.20,17,4,0,0.23
2013-9-27,46.9,44.2,41.2,41.0,38.8,37.0,89,81,72,29.19,28.95,10,2,0,0.00
2013-9-28,47.4,43.0,38.7,39.0,35.6,31.0,89,75,65,29.13,29.04,11,3,0,0.00
2013-9-29,44.0,39.3,34.9,34.0,29.7,26.0,74,69,60,29.33,29.10,10,3,0,0.00
2013-9-30,49.5,40.3,35.2,34.0,28.4,26.0,70,63,50,29.61,29.33,9,3,0,0.00
2013-10-1,43.7,38.9,35.1,35.0,28.7,26.0,85,67,59,29.80,29.61,8,2,0,0.02
2013-10-2,46.3,41.5,38.2,41.0,38.1,36.0,95,87,72,29.80,29.77,10,2,0,0.08
2013-10-3,46.0,42.4,39.0,40.0,37.3,35.0,92,82,69,29.77,29.43,10,2,0,0.00
2013-10-4,53.1,45.3,39.9,40.0,35.6,33.0,83,69,51,29.72,29.45,9,3,0,0.00
2013-10-5,44.1,41.2,38.3,42.0,36.4,32.0,94,83,68,29.75,29.67,8,3,0,0.00
2013-10-6,41.3,38.9,36.6,39.0,37.3,35.0,98,94,83,29.71,29.66,14,3,0,0.45
2013-10-7,43.7,39.8,37.0,37.0,35.5,31.0,95,85,61,29.86,29.68,18,5,0,0.01
2013-10-8,42.5,39.6,36.2,37.0,36.1,35.0,96,87,77,29.66,29.02,35,16,0,2.23
2013-10-9,43.8,38.8,33.9,37.0,32.0,24.0,98,78,56,29.70,29.06,17,8,0,0.00
2013-10-10,42.4,38.0,32.9,35.0,28.1,18.0,86,69,50,29.72,29.66,22,7,0,0.01
2013-10-11,47.2,43.8,40.9,38.0,36.1,34.0,84,75,64,29.84,29.69,25,11,0,0.06
2013-10-12,49.4,45.6,40.5,38.0,35.9,32.0,88,70,56,29.80,29.59,32,10,0,0.16
2013-10-13,47.3,41.6,35.4,39.0,35.4,33.0,97,79,60,29.65,29.40,35,9,0,0.36
2013-10-14,45.8,42.7,40.7,36.0,34.9,34.0,81,74,66,30.02,29.66,21,12,0,0.00
2013-10-15,47.4,44.0,41.4,40.0,37.5,35.0,86,78,68,30.09,29.96,37,19,0,0.57
2013-10-16,50.0,48.7,47.2,40.0,38.4,36.0,74,68,60,30.20,30.09,32,16,0,0.00
2013-10-17,49.8,47.4,44.4,41.0,36.6,31.0,82,67,49,30.10,29.74,25,10,0,0.04
2013-10-18,47.1,45.3,41.5,38.0,33.7,30.0,85,65,53,29.76,29.50,31,14,0,0.04
2013-10-19,47.4,44.9,41.2,38.0,33.1,30.0,85,64,53,29.61,29.24,28,12,0,0.03
2013-10-20,45.6,42.3,40.7,35.0,30.6,27.0,74,64,57,29.90,29.62,20,12,0,0.00
2013-10-21,45.0,40.4,37.8,34.0,31.3,29.0,81,70,60,30.01,29.91,17,6,0,0.00
2013-10-22,41.8,38.1,34.1,34.0,30.6,26.0,86,75,66,30.16,30.01,16,5,0,0.00
2013-10-23,35.1,31.0,27.5,28.0,24.5,19.0,89,77,69,30.01,29.73,6,2,0,0.00
2013-10-24,39.7,33.8,29.0,30.0,24.9,14.0,89,71,37,29.81,29.64,15,4,0,0.00
2013-10-25,43.2,39.6,34.2,33.0,31.1,30.0,83,71,64,30.14,29.71,22,6,0,0.00
2013-10-26,42.4,38.8,35.5,33.0,30.3,20.0,80,72,43,30.41,30.14,11,3,0,0.00
2013-10-27,48.0,39.2,31.6,40.0,32.5,19.0,97,79,34,30.26,29.50,30,7,0,0.99
2013-10-28,52.4,45.3,39.6,42.0,38.3,33.0,97,77,61,29.54,29.17,39,13,0,1.20
2013-10-29,45.3,42.1,38.3,34.0,31.5,29.0,82,67,59,29.53,29.32,19,9,0,0.00
2013-10-30,42.9,39.2,36.8,34.0,32.8,31.0,85,78,64,29.31,29.07,9,2,0,0.00
2013-10-31,40.1,37.6,35.7,37.0,35.2,34.0,100,91,82,29.60,29.14,7,2,0,0.15
2013-11-1,37.5,36.3,35.5,36.0,35.4,34.0,98,96,93,29.97,29.61,7,1,0,0.15
2013-11-2,39.4,35.7,33.1,35.0,33.2,28.0,99,91,64,29.97,29.77,19,5,0,0.03
2013-11-3,43.4,39.9,36.8,31.0,29.5,25.0,79,67,58,29.80,29.54,25,8,0,0.00
2013-11-4,39.7,36.9,32.0,32.0,30.2,27.0,84,77,70,29.54,29.25,10,2,0,0.00
2013-11-5,37.4,33.4,27.3,31.0,23.6,16.0,82,68,56,29.94,29.34,10,3,0,0.00
2013-11-6,27.8,24.3,19.2,26.0,17.4,14.0,95,75,64,30.02,29.90,7,2,0,0.00
2013-11-7,36.4,28.9,20.3,23.0,19.2,13.0,89,68,53,29.89,29.74,8,2,0,0.00
2013-11-8,28.2,21.9,16.4,21.0,14.5,10.0,95,74,51,30.22,29.83,5,1,0,0.00
2013-11-9,43.4,31.4,22.5,37.0,25.2,11.0,97,79,48,30.22,29.98,22,5,0,0.04
2013-11-10,39.5,33.5,27.2,35.0,30.9,26.0,96,90,80,29.98,29.69,29,13,0,0.61
2013-11-11,28.0,22.5,15.3,27.0,21.3,13.0,100,95,92,30.03,29.79,10,5,0,0.00
2013-11-12,20.0,15.5,12.8,14.0,11.7,7.0,92,85,68,30.14,30.02,11,4,0,0.01
2013-11-13,35.3,25.6,18.6,32.0,19.5,8.0,94,78,50,30.23,30.11,9,2,0,0.01
2013-11-14,40.6,33.8,25.8,37.0,29.4,16.0,97,85,54,30.09,29.85,22,7,0,0.00
2013-11-15,31.1,27.0,21.9,18.0,14.4,10.0,73,60,44,30.01,29.90,16,6,0,0.00
2013-11-16,22.4,18.0,11.8,14.0,7.7,2.0,82,65,54,30.19,29.96,19,7,0,0.00
2013-11-17,12.2,8.9,5.3,6.0,2.4,0.0,87,75,61,30.20,30.17,20,7,0,0.00
2013-11-18,8.9,5.2,0.2,4.0,-3.3,-8.0,92,69,52,30.18,30.14,14,3,0,0.00
2013-11-19,9.9,5.2,-2.8,6.0,-5.8,-15.0,89,62,43,30.14,30.01,8,1,0,0.00
2013-11-20,9.3,4.0,-6.6,-2.0,-7.2,-14.0,89,61,42,30.07,29.96,9,2,0,0.00
2013-11-21,12.7,3.8,-5.2,10.0,-3.8,-13.0,90,71,46,29.96,29.23,19,7,0,0.00
2013-11-22,41.7,29.7,17.7,36.0,25.4,9.0,97,85,57,29.44,29.09,20,8,0,0.08
2013-11-23,30.3,24.9,18.6,19.0,12.9,5.0,81,61,43,29.97,29.44,26,10,0,0.00
2013-11-24,37.4,34.6,30.2,28.0,25.6,19.0,78,70,57,30.02,29.96,26,9,0,0.00
2013-11-25,35.6,31.1,25.0,26.0,23.5,21.0,86,73,65,29.95,29.68,7,2,0,0.00
2013-11-26,32.8,29.6,27.4,29.0,25.5,22.0,97,85,70,29.84,29.76,5,1,0,0.00
2013-11-27,29.3,25.0,17.3,28.0,21.9,6.0,96,88,60,29.84,29.66,20,3,0,0.00
2013-11-28,21.4,11.0,6.0,8.0,-0.5,-7.0,83,60,49,29.98,29.67,16,7,0,0.00
2013-11-29,8.9,3.8,-5.0,3.0,-4.6,-10.0,92,69,48,30.13,29.97,18,3,0,0.00
2013-11-30,10.2,1.9,-7.6,-1.0,-5.9,-12.0,87,71,45,30.40,30.12,18,4,0,0.00
2013-12-1,23.0,12.0,4.1,1.0,-2.9,-6.0,76,52,37,30.58,30.40,9,2,0,0.00
2013-12-2,36.8,23.7,13.0,12.0,4.9,-11.0,82,46,27,30.70,30.56,7,2,0,0.00
2013-12-3,36.0,26.9,16.8,22.0,12.9,4.0,83,59,26,30.71,30.52,8,3,0,0.00
2013-12-4,29.3,26.1,21.3,28.0,23.0,19.0,94,87,75,30.53,30.39,7,1,0,0.00
2013-12-5,37.0,32.2,25.9,36.0,31.2,24.0,98,96,93,30.50,30.39,4,1,0,0.11
2013-12-6,41.2,37.8,35.0,40.0,36.8,34.0,98,96,93,30.51,30.46,5,1,0,0.04
2013-12-7,43.3,33.1,29.3,41.0,32.5,29.0,98,98,89,30.47,30.41,4,0,0,0.03
2013-12-8,38.0,28.4,23.8,35.0,27.4,23.0,98,96,88,30.44,30.35,7,1,0,0.01
2013-12-9,34.2,31.0,28.3,30.0,29.0,27.0,98,92,81,30.36,30.18,9,2,0,0.00
2013-12-10,31.8,27.1,21.7,31.0,26.5,21.0,98,97,95,30.18,29.73,7,2,0,0.00
2013-12-11,22.4,15.2,7.5,22.0,12.6,4.0,96,89,74,29.72,29.37,9,2,0,0.00
2013-12-12,11.2,8.9,3.9,8.0,5.5,1.0,90,86,77,29.48,29.37,14,3,0,0.00
2013-12-13,19.3,12.4,8.9,15.0,10.1,6.0,93,90,80,29.49,28.85,18,5,0,0.00
2013-12-14,20.2,15.7,12.5,19.0,14.2,11.0,95,93,92,29.07,28.84,9,2,0,0.00
2013-12-15,18.9,8.9,-0.1,17.0,-1.4,-99.9,93,83,87,29.90,29.08,6,-83,0,0.00
2013-12-16,7.5,3.9,-6.1,5.0,1.3,-9.0,100,88,86,30.10,29.90,7,2,0,0.00
2013-12-17,8.2,3.6,-5.7,4.0,-0.6,-9.0,93,83,75,30.39,30.10,6,2,0,0.00
2013-12-18,23.0,10.3,2.0,19.0,5.1,-2.0,93,79,64,30.39,29.77,11,3,0,0.00
2013-12-19,28.1,21.9,7.2,26.0,19.9,5.0,96,91,84,29.75,29.61,16,3,0,0.00
2013-12-20,33.1,25.5,16.2,30.0,22.0,15.0,96,87,72,29.69,29.62,9,2,0,0.00
2013-12-21,37.1,34.1,21.3,32.0,29.5,19.0,97,83,74,29.64,29.44,21,7,0,0.06
2013-12-22,33.8,25.6,17.9,32.0,23.0,8.0,97,90,58,29.68,29.32,23,2,0,0.00
2013-12-23,18.8,13.9,0.7,12.0,1.4,-5.0,79,58,43,30.11,29.68,17,5,0,0.00
2013-12-24,18.7,8.4,-3.5,9.0,-1.1,-12.0,86,66,47,30.12,29.75,11,4,0,0.00
2013-12-25,19.9,9.1,-3.7,8.0,0.4,-8.0,87,69,48,29.75,29.70,7,1,0,0.00
2013-12-26,23.3,12.4,3.5,9.0,1.8,-10.0,93,64,47,29.76,29.65,5,1,0,0.00
2013-12-27,19.6,12.0,-0.5,13.0,5.1,-10.0,90,74,54,29.94,29.76,14,2,0,0.00
2013-12-28,33.0,21.5,9.6,28.0,17.8,5.0,91,85,74,29.95,29.89,13,3,0,0.00
2013-12-29,34.7,29.5,20.8,26.0,23.6,19.0,92,79,63,29.93,29.66,6,2,0,0.00
2013-12-30,35.1,25.5,15.8,27.0,20.8,13.0,93,82,60,29.65,29.43,5,2,0,0.00
2013-12-31,39.1,33.6,25.1,30.0,25.8,19.0,88,73,62,29.62,29.19,9,3,0,0.00
2014-1-1,38.8,35.5,29.1,31.0,27.9,24.0,96,74,62,29.47,29.10,13,5,0,0.01
2014-1-2,32.8,29.2,27.6,32.0,27.7,24.0,97,94,83,30.04,29.47,7,2,0,0.00